Tracking 31027 objects as of 19-Jul-2025
HD Live streaming from Space Station
objects crossing your sky now

DMSP 5D-2 F11 DEB

Track DMSP 5D-2 F11 DEB now!
10-day predictions


NORAD ID: 29074
Int'l Code: 1991-082BV
Perigee: 718.4 km
Apogee: 732.0 km
Inclination: 98.6 °
Period: 99.2 minutes
Semi major axis: 7096 km
RCS: 0.0073 m2 (small)
Launch date: November 28, 1991
Source: United States (US)
Launch site: AIR FORCE WESTERN TEST RANGE (AFWTR)

Note: This is SATELLITE DEBRIS
Your satellite tracking list
COSMOS 1743
Track 1 satellite(s)




NASA's NSSDC Master Catalog

Two Line Element Set (TLE):
1 29074U 91082BV  25199.46979433  .00005018  00000-0  12435-2 0  9994
2 29074  98.5893 277.1154 0009577 107.5296 252.6946 14.52339494 82043
Source of the keplerian elements: AFSPC